北斗二号 G8 (BEIDOU 2 G8)

导读

BEIDOU-2 G8 是中国北斗二代卫星导航系统中的一颗地球同步轨道卫星,主要用于提供高精度定位、导航和授时服务。该卫星于2012年发射,是北斗系统区域服务建设的重要组成部分。G8卫星的部署增强了系统在亚太地区的覆盖能力与稳定性,提升了定位精度和信号可靠性。其运行有助于支持交通、通信、气象、测绘等多个领域的应用,推动了中国自主卫星导航系统的发展,减少了对GPS的依赖。

Basic Information
目录编号:
44231
目录名称:
BEIDOU 2 G8
国际标识:
2019-027A
轨道中心:
EARTH
卫星名称:
北斗二号 G8
卫星全名:
北斗二号 G8 (BEIDOU 2 G8)
卫星状态:
在轨 (已飞行2585 天)
发射日期:
2019-05-17 UTC
国别 :
中国 (CN)
星等 :
--
Orbit Information
数据来源 国际轨道数据 AOE轨道数据
星历时间 2026-06-14T06:23:46+0800
12小时前
查看轨道信息
2026-06-12T23:00:00+0800
1天前
查看轨道信息
半长轴 42164.728km 42164.644km
偏心率 0.001025 0.001036
轨道倾角 1.648° 1.646°
近地点辐角 282.177° 283.004°
升交点赤经 74.502° 74.523°
平近点角 26.047° 272.969°
近地点 35743.372km 35742.824km
远地点 35829.81km 35830.19km
周期 1436.097分钟 1436.092分钟
每日圈数 1.002718 1.002721
Detailed Information
平衡模式:
三轴稳定
制造商(研发单位):
中国空间技术研究院
制造商所在国:
中国
使用方式:
暂无
Satellite Introduction
北斗卫星导航系统是中国着眼于国家安全和经济社会发展需要,自主建设运行的全球卫星导航系统,是为全球用户提供全天候、全天时、高精度的定位、导航和授时服务的国家重要时空基础设施。该卫星仍在工作。
2D Orbit Map
3D Orbit Map
Orbit Altitude Analysis Chart
Orbit Inclination Analysis Chart
Orbit Comprehensive Analysis Chart
View Comprehensive Chart